Location: Quedlinburg
(51.7921°N, 11.1414°E)
Time: 13:09:25
(UTC+02:00)

RS-15 - Pass Details

Date: 12 March 2026
Orbit: 1893 x 2152 km, 64.8° (Epoch: 22 April)

Event Time Altitude Azimuth Distance (km) Brightness Sun altitude
Rises 05:46:17 0° 319° (NW) 5,390 10.0 -8.6°
Reaches altitude 10° 05:49:33 10° 317° (NW) 4,418 9.5 -8.1°
Maximum altitude 06:00:47 66° 239° (WSW) 2,201 8.1 -6.4°
Drops below altitude 10° 06:12:33 10° 161° (SSE) 4,602 10.2 -4.6°
Sets 06:16:02 0° 159° (SSE) 5,624 10.7 -4.0°
